Location: Red Deer
(52.2681°N, 113.8112°W)
Time: 01:30:07
(UTC-06:00)

Envisat - Pass Details

Date: 30 April 2024
Orbit: 762 x 764 km, 98.3° (Epoch: 20 May)

Event Time Altitude Azimuth Distance (km) Brightness Sun altitude
Rises 04:58:23 0° 16° (NNE) 3,240 7.3 -9.4°
Reaches altitude 10° 05:00:43 10° 18° (NNE) 2,309 6.5 -9.1°
Maximum altitude 05:05:48 71° 103° (ESE) 808 3.3 -8.5°
Drops below altitude 10° 05:10:50 10° 188° (S) 2,291 5.1 -7.9°
Sets 05:13:08 0° 190° (S) 3,213 5.8 -7.6°
Enters shadow 05:13:12 - 190° (S) 3,235 5.8 -7.6°
